EW0601 Weather Reports


Display with metric or nautical units.
time (UTC)temp
F
wind
direction
speed
MPH
gust
MPH
rain 1hr
in
rain 24hr
in
rain mn
in
humidity
%
barometer
mb
20220518030137 65 278 0.0 2.0 0.00 0.00 0.00 14 1005.4
20220518024555 65 272 0.0 2.0 0.00 0.00 0.00 14 1005.1
20220518023048 65 281 0.0 0.0 0.00 0.00 0.00 14 1004.8
20220518021547 67 281 0.0 0.0 0.00 0.00 0.00 13 1004.7
20220518020047 69 281 0.0 1.0 0.00 0.00 0.00 12 1004.5
20220518014547 70 284 0.0 1.0 0.00 0.00 0.00 11 1004.4
20220518013059 72 281 0.0 8.0 0.00 0.00 0.00 10 1004.1
20220518011546 74 279 0.0 8.0 0.00 0.00 0.00 10 1004.0
20220518010046 76 239 1.0 13.0 0.00 0.00 0.00 10 1003.8
20220518004548 77 302 1.0 11.0 0.00 0.00 0.00 8 1003.7
20220518003103 78 244 2.0 12.0 0.00 0.00 0.00 9 1003.6
20220518001544 78 281 2.0 13.0 0.00 0.00 0.00 8 1003.6
20220518000043 79 252 2.0 9.0 0.00 0.00 0.00 8 1003.6
20220517234542 79 288 0.0 14.0 0.00 0.00 0.00 8 1003.5
20220517233045 80 199 3.0 9.0 0.00 0.00 0.00 8 1003.6
20220517231541 81 266 2.0 10.0 0.00 0.00 0.00 7 1003.7
20220517230045 81 268 2.0 10.0 0.00 0.00 0.00 7 1003.5
20220517224541 82 313 1.0 10.0 0.00 0.00 0.00 7 1003.6
20220517223140 82 188 1.0 9.0 0.00 0.00 0.00 8 1003.4
20220517221536 82 253 2.0 7.0 0.00 0.00 0.00 8 1003.6
20220517220035 80 267 1.0 10.0 0.00 0.00 0.00 7 1003.6
20220517214534 81 292 3.0 19.0 0.00 0.00 0.00 7 1003.8
20220517213033 83 252 2.0 12.0 0.00 0.00 0.00 8 1003.8
20220517211532 82 304 2.0 12.0 0.00 0.00 0.00 7 1003.7
20220517210031 83 296 2.0 11.0 0.00 0.00 0.00 6 1003.8
20220517204532 83 265 1.0 8.0 0.00 0.00 0.00 7 1003.8
20220517203030 83 214 1.0 21.0 0.00 0.00 0.00 7 1003.9
20220517201529 84 315 1.0 8.0 0.00 0.00 0.00 7 1004.2
20220517200026 83 238 0.0 12.0 0.00 0.00 0.00 9 1004.3
20220517194533 83 265 0.0 9.0 0.00 0.00 0.00 9 1004.4
20220517193027 83 186 1.0 12.0 0.00 0.00 0.00 9 1004.3
20220517191523 83 228 2.0 11.0 0.00 0.00 0.00 9 1004.3
20220517190021 82 203 1.0 15.0 0.00 0.00 0.00 9 1004.5
20220517184520 83 280 3.0 14.0 0.00 0.00 0.00 7 1004.5
20220517183017 82 10 1.0 11.0 0.00 0.00 0.00 9 1004.5
20220517181516 81 269 0.0 10.0 0.00 0.00 0.00 9 1004.5
20220517180014 82 257 2.0 12.0 0.00 0.00 0.00 7 1004.6
20220517174515 82 171 3.0 10.0 0.00 0.00 0.00 9 1004.8
20220517173008 81 197 3.0 9.0 0.00 0.00 0.00 9 1005.0
20220517171505 79 231 0.0 5.0 0.00 0.00 0.00 10 1005.1
20220517170005 80 334 1.0 8.0 0.00 0.00 0.00 8 1005.2